TimeEST,TemperatureF,Dew PointF,Humidity,Sea Level PressureIn,VisibilityMPH,Wind Direction,Wind SpeedMPH,Gust SpeedMPH,PrecipitationIn,Events,Conditions,WindDirDegrees,DateUTC
12:53 AM,53.1,46.9,80,30.13,10.0,NNW,4.6,-,N/A,,Clear,340,2012-11-25 05:53:00
1:53 AM,48.0,44.1,86,30.12,10.0,Calm,Calm,-,N/A,,Clear,0,2012-11-25 06:53:00
2:53 AM,48.0,45.0,89,30.12,10.0,Calm,Calm,-,N/A,,Clear,0,2012-11-25 07:53:00
3:53 AM,46.9,45.0,93,30.12,10.0,North,4.6,-,N/A,,Clear,350,2012-11-25 08:53:00
4:53 AM,48.0,45.0,89,30.12,10.0,North,5.8,-,N/A,,Clear,360,2012-11-25 09:53:00
5:53 AM,46.9,44.1,90,30.13,8.0,North,3.5,-,N/A,,Clear,360,2012-11-25 10:53:00
6:53 AM,45.0,43.0,93,30.14,8.0,NE,3.5,-,N/A,,Clear,40,2012-11-25 11:53:00
7:53 AM,50.0,46.0,86,30.17,10.0,NNE,5.8,-,0.01,,Clear,30,2012-11-25 12:53:00
8:53 AM,57.9,44.1,60,30.18,10.0,NNE,6.9,-,N/A,,Clear,30,2012-11-25 13:53:00
9:53 AM,63.0,41.0,45,30.20,10.0,NE,5.8,-,N/A,,Clear,40,2012-11-25 14:53:00
10:53 AM,68.0,41.0,37,30.19,10.0,North,4.6,-,N/A,,Clear,360,2012-11-25 15:53:00
11:53 AM,70.0,39.9,33,30.17,10.0,NW,6.9,-,N/A,,Clear,320,2012-11-25 16:53:00
12:53 PM,71.1,39.0,31,30.15,10.0,NNW,8.1,-,N/A,,Clear,330,2012-11-25 17:53:00
1:53 PM,73.0,39.9,30,30.12,10.0,NE,6.9,-,N/A,,Clear,50,2012-11-25 18:53:00
2:53 PM,73.0,39.9,30,30.11,10.0,Variable,5.8,-,N/A,,Clear,0,2012-11-25 19:53:00
3:53 PM,73.0,39.0,29,30.10,10.0,Calm,Calm,-,N/A,,Clear,0,2012-11-25 20:53:00
4:53 PM,72.0,41.0,33,30.11,10.0,NE,3.5,-,N/A,,Clear,50,2012-11-25 21:53:00
5:53 PM,62.1,44.1,52,30.12,10.0,Calm,Calm,-,N/A,,Clear,0,2012-11-25 22:53:00
6:53 PM,60.1,44.1,55,30.14,10.0,Calm,Calm,-,N/A,,Clear,0,2012-11-25 23:53:00
7:53 PM,57.0,46.0,67,30.16,10.0,Calm,Calm,-,N/A,,Clear,0,2012-11-26 00:53:00
8:53 PM,52.0,44.1,74,30.17,10.0,Calm,Calm,-,N/A,,Clear,0,2012-11-26 01:53:00
9:53 PM,51.1,45.0,80,30.18,10.0,North,4.6,-,N/A,,Clear,350,2012-11-26 02:53:00
10:53 PM,50.0,43.0,77,30.18,10.0,North,3.5,-,N/A,,Clear,10,2012-11-26 03:53:00
11:53 PM,48.9,43.0,80,30.18,10.0,NNE,3.5,-,N/A,,Clear,30,2012-11-26 04:53:00